Regional Weather Roundup
Issued by NWS

Home | Current Version | Previous Version | Graphics & Text | Print | Product List | Glossary On
Versions: 1 2 3 4 5 6 7 8 9 10 11 12 13 14 15 16 17 18 19 20 21 22 23 24 25 26 27 28 29 30 31 32 33 34 35 36 37 38 39 40 41 42 43 44 45 46 47 48 49 50
000
ASUS43 KIND 312259
RWRIN

WEATHER ROUNDUP FOR INDIANA
NATIONAL WEATHER SERVICE INDIANAPOLIS IN
700 PM EDT FRI JUL 31 2015

NOTE: "FAIR" INDICATES FEW OR NO CLOUDS BELOW 12,000 FEET WITH NO
SIGNIFICANT WEATHER AND/OR OBSTRUCTIONS TO VISIBILITY.

* - STATION DOES NOT REPORT WEATHER SUCH AS PRECIPITATION OR FOG.

+ - STATION NOT QUALITY CONTROLLED BY THE NATIONAL WEATHER SERVICE.
    USE DATA WITH CAUTION...ESPECIALLY DEWPOINT AND RELATIVE
    HUMIDITY OBSERVATIONS.

INZ001>003-010>013-019-020-010000-
NORTHWEST INDIANA

CITY           SKY/WX    TMP DP  RH WIND       PRES   REMARKS
GARY /AIRPORT/ SUNNY     86  50  28 W14G29    29.93F
RENSSELAER +   SUNNY     82  54  36 W9G21     29.95S

$$

LMZ046-743>745-010000-
SOUTHERN LAKE MICHIGAN

STATION/POSITION TIME  TEMP    WIND        PRES    WAVE
                       AIR SEA DIR/SP/G            HT
                 (UTC) (F)     (DEG/KT/KT) (MB)    (FT)
BURNS HARBOR     2200   78     330/  9/ 12 1013.9S
MICHIGAN CITY    2200   78     310/ 15/ 17   N/A
5NW MICH CITY    2200   77 74  340/ 12/ 16   N/A     2

$$

INZ004-005-014>016-021>024-010000-
NORTH CENTRAL INDIANA

CITY           SKY/WX    TMP DP  RH WIND       PRES   REMARKS
ELKHART        SUNNY     81  48  32 NW14G23   29.93S
GOSHEN         SUNNY     80  55  42 NW18      29.92S
SOUTH BEND     SUNNY     81  52  36 NW9       29.93F

$$

INZ006>009-017-018-025>027-010000-
NORTHEAST INDIANA

CITY           SKY/WX    TMP DP  RH WIND       PRES   REMARKS
ANGOLA *+      MOSUNNY   82  57  42 NW13      29.91F
FORT WAYNE     MOSUNNY   84  52  33 NW9       29.92F

$$

INZ028-029-035-036-043>045-051>053-010000-
WEST CENTRAL INDIANA

CITY           SKY/WX    TMP DP  RH WIND       PRES   REMARKS
CRAWFORDSVL +  SUNNY     80  52  37 W8          N/A
GREENCASTLE +  SUNNY     82  54  36 W5        29.99S
LAFAYETTE      SUNNY     82  58  43 W10       29.95F
TERRE HAUTE    SUNNY     86  53  32 NW10G20   29.99S

$$

INZ030>032-037>040-046>048-054>057-064-065-010000-
CENTRAL INDIANA

CITY           SKY/WX    TMP DP  RH WIND       PRES   REMARKS
GREENWOOD *+   SUNNY     84  59  42 W12G20    29.97F
INDIANAPOLIS   MOSUNNY   85  63  47 W20       29.96F
-EAGLE CREEK   SUNNY     84  64  50 W16G23    29.95F
KOKOMO *+      SUNNY     84  57  39 NW18G24   29.94S
MT COMFORT *+  SUNNY     84  54  34 W17G25    29.96S
SHELBYVILLE    SUNNY     86  64  47 W10G18    29.95F

$$

INZ033-034-041-042-049-050-058-059-010000-
EAST CENTRAL INDIANA

CITY           SKY/WX    TMP DP  RH WIND       PRES   REMARKS
MUNCIE         SUNNY     78  68  71 W8        29.94F

$$

INZ060-061-067>069-081>083-085>088-010000-
SOUTHWEST INDIANA

CITY           SKY/WX    TMP DP  RH WIND       PRES   REMARKS
EVANSVILLE     SUNNY     89  65  44 NW8       30.01F
HUNTINGBURG *+ SUNNY     86  64  48 W8        30.01S

$$

INZ062-063-066-070>080-084-089>092-010000-
SOUTH CENTRAL AND SOUTHEAST INDIANA

CITY           SKY/WX    TMP DP  RH WIND       PRES   REMARKS
BLOOMINGTON    SUNNY     85  64  49 W6        29.99F
MADISON *+     SUNNY     86  54  32 W3        30.01F
SEYMOUR +      SUNNY     88  63  42 W7G16     29.98F

$$




USA.gov is the U.S. government's official web portal to all federal, state and local government web resources and services.